Weather in Bogatyrevka

Russia / Tomsk District     56°58′46″N   81°45′09″E
temp.,
°C
wind,
m/s
gust,
m/s
humid.,
%
clouds,
%
prec.,
mm/h
press.,
hPa
HPBL,
m
5 march, fri
fri501:00−2ssw71490100 0.8 10071019
04:00−3ssw71490100 0.1 1005960
07:00−4s61589100 0.3 1005818
10:00−6s61490100 0.3 1004792
13:00−5ssw61389100 0.6 1003823
16:00−3sw81591100 0.4 10031161
19:00−5sw71386100 0.6 10071037
22:00−6sw51393100 0.1 10081075
6 march, sat
sat601:00−5sw61390100 0.4 1009906
04:00−5sw51392100 0.1 1007781
07:00−4ssw51394100 0.3 1007798
10:00−4ssw61293100 1.0 10051209
13:00−4sw71292100 2.1 10041107
16:00−3ssw61391100 0.6 10031141
19:00−2sw61295100 1.2 10021056
22:00−1wsw71485100 0.8 10021312
7 march, sun
sun701:00−7wsw5119099 0.8 1004634
04:00−10wsw41193100 0.0 1006512
07:00−12wsw41193100 0.1 1010494
10:00−12wsw5148893 0.0 1012655
13:00−8wsw6118248 0.0 10141056
16:00−8wsw598487 0.1 10161180
19:00−10sw399193 0.2 1018458
22:00−13ssw389661 0.0 1019161
8 march, mon
mon801:00−13s269379 0.0 1018190
04:00−9sse51389100 0.0 1013499
07:00−5s61591100 0.7 1009833
10:00−1s71489100 0.3 1004931
13:00−2ssw71595100 0.9 1001968
16:00−1ssw81592100 0.9 9991210
19:00−2sw71494100 2.1 10001226
22:00−9w61488100 0.4 10061026
9 march, tue
tue901:00−10wsw51289100 0.4 1010892
04:00−11wsw51191100 0.1 1014665
07:00−14sw41193100 0.1 1017445
10:00−13sw5109092 0.0 1018482
13:00−10ssw498993 0.0 1019638
16:00−8sw5989100 0.1 1019737
19:00−10ssw3893100 0.2 1018429
22:00−11s41094100 0.0 1016416